Location: Altamira
(10.5079°N, 66.8544°W)
Time: 05:21:31
(UTC+00:00)

Envisat - Pass Details

Date: 02 December 2022
Orbit: 763 x 765 km, 98.2° (Epoch: 05 February)

Event Time Altitude Azimuth Distance (km) Brightness Sun altitude
Exits shadow 08:37:42 27° 202° (SSW) 1,424 4.3 -26.8°
Drops below altitude 10° 08:39:59 10° 198° (SSW) 2,294 5.5 -26.2°
Sets 08:42:18 0° 196° (SSW) 3,220 6.3 -25.7°
